Index of /20260428/WXO-DD/model_gdps/15km/00/123
Name Last modified Size Description
Parent Directory -
20260428T00Z_MSC_GDPS_AbsoluteVorticity_IsbL-0200_LatLon0.15_PT123H.grib2 2026-04-28 04:29 1.5M
20260428T00Z_MSC_GDPS_AbsoluteVorticity_IsbL-0250_LatLon0.15_PT123H.grib2 2026-04-28 04:29 1.6M
20260428T00Z_MSC_GDPS_AbsoluteVorticity_IsbL-0500_LatLon0.15_PT123H.grib2 2026-04-28 04:29 1.4M
20260428T00Z_MSC_GDPS_AbsoluteVorticity_IsbL-0700_LatLon0.15_PT123H.grib2 2026-04-28 04:29 1.3M
20260428T00Z_MSC_GDPS_AbsoluteVorticity_IsbL-0850_LatLon0.15_PT123H.grib2 2026-04-28 04:29 1.6M
20260428T00Z_MSC_GDPS_AirTemp_AGL-120m_LatLon0.15_PT123H.grib2 2026-04-28 04:29 906K
20260428T00Z_MSC_GDPS_AirTemp_AGL-2m_LatLon0.15_PT123H.grib2 2026-04-28 04:29 1.0M
20260428T00Z_MSC_GDPS_AirTemp_AGL-40m_LatLon0.15_PT123H.grib2 2026-04-28 04:29 928K
20260428T00Z_MSC_GDPS_AirTemp_AGL-80m_LatLon0.15_PT123H.grib2 2026-04-28 04:29 916K
20260428T00Z_MSC_GDPS_AirTemp_IsbL-0001_LatLon0.15_PT123H.grib2 2026-04-28 04:29 712K
20260428T00Z_MSC_GDPS_AirTemp_IsbL-0005_LatLon0.15_PT123H.grib2 2026-04-28 04:29 676K
20260428T00Z_MSC_GDPS_AirTemp_IsbL-0010_LatLon0.15_PT123H.grib2 2026-04-28 04:29 684K
20260428T00Z_MSC_GDPS_AirTemp_IsbL-0020_LatLon0.15_PT123H.grib2 2026-04-28 04:29 781K
20260428T00Z_MSC_GDPS_AirTemp_IsbL-0030_LatLon0.15_PT123H.grib2 2026-04-28 04:29 746K
20260428T00Z_MSC_GDPS_AirTemp_IsbL-0050_LatLon0.15_PT123H.grib2 2026-04-28 04:29 802K
20260428T00Z_MSC_GDPS_AirTemp_IsbL-0100_LatLon0.15_PT123H.grib2 2026-04-28 04:29 956K
20260428T00Z_MSC_GDPS_AirTemp_IsbL-0150_LatLon0.15_PT123H.grib2 2026-04-28 04:29 963K
20260428T00Z_MSC_GDPS_AirTemp_IsbL-0175_LatLon0.15_PT123H.grib2 2026-04-28 04:29 948K
20260428T00Z_MSC_GDPS_AirTemp_IsbL-0200_LatLon0.15_PT123H.grib2 2026-04-28 04:29 960K
20260428T00Z_MSC_GDPS_AirTemp_IsbL-0225_LatLon0.15_PT123H.grib2 2026-04-28 04:29 1.0M
20260428T00Z_MSC_GDPS_AirTemp_IsbL-0250_LatLon0.15_PT123H.grib2 2026-04-28 04:29 1.0M
20260428T00Z_MSC_GDPS_AirTemp_IsbL-0275_LatLon0.15_PT123H.grib2 2026-04-28 04:29 1.0M
20260428T00Z_MSC_GDPS_AirTemp_IsbL-0300_LatLon0.15_PT123H.grib2 2026-04-28 04:29 1.0M
20260428T00Z_MSC_GDPS_AirTemp_IsbL-0350_LatLon0.15_PT123H.grib2 2026-04-28 04:29 921K
20260428T00Z_MSC_GDPS_AirTemp_IsbL-0400_LatLon0.15_PT123H.grib2 2026-04-28 04:29 936K
20260428T00Z_MSC_GDPS_AirTemp_IsbL-0450_LatLon0.15_PT123H.grib2 2026-04-28 04:29 958K
20260428T00Z_MSC_GDPS_AirTemp_IsbL-0500_LatLon0.15_PT123H.grib2 2026-04-28 04:29 1.0M
20260428T00Z_MSC_GDPS_AirTemp_IsbL-0550_LatLon0.15_PT123H.grib2 2026-04-28 04:29 797K
20260428T00Z_MSC_GDPS_AirTemp_IsbL-0600_LatLon0.15_PT123H.grib2 2026-04-28 04:29 889K
20260428T00Z_MSC_GDPS_AirTemp_IsbL-0650_LatLon0.15_PT123H.grib2 2026-04-28 04:29 911K
20260428T00Z_MSC_GDPS_AirTemp_IsbL-0700_LatLon0.15_PT123H.grib2 2026-04-28 04:29 944K
20260428T00Z_MSC_GDPS_AirTemp_IsbL-0750_LatLon0.15_PT123H.grib2 2026-04-28 04:29 1.0M
20260428T00Z_MSC_GDPS_AirTemp_IsbL-0800_LatLon0.15_PT123H.grib2 2026-04-28 04:29 1.1M
20260428T00Z_MSC_GDPS_AirTemp_IsbL-0850_LatLon0.15_PT123H.grib2 2026-04-28 04:29 1.1M
20260428T00Z_MSC_GDPS_AirTemp_IsbL-0875_LatLon0.15_PT123H.grib2 2026-04-28 04:29 1.1M
20260428T00Z_MSC_GDPS_AirTemp_IsbL-0900_LatLon0.15_PT123H.grib2 2026-04-28 04:29 1.1M
20260428T00Z_MSC_GDPS_AirTemp_IsbL-0925_LatLon0.15_PT123H.grib2 2026-04-28 04:29 1.1M
20260428T00Z_MSC_GDPS_AirTemp_IsbL-0950_LatLon0.15_PT123H.grib2 2026-04-28 04:29 1.1M
20260428T00Z_MSC_GDPS_AirTemp_IsbL-0970_LatLon0.15_PT123H.grib2 2026-04-28 04:29 1.2M
20260428T00Z_MSC_GDPS_AirTemp_IsbL-0985_LatLon0.15_PT123H.grib2 2026-04-28 04:29 1.1M
20260428T00Z_MSC_GDPS_AirTemp_IsbL-1000_LatLon0.15_PT123H.grib2 2026-04-28 04:29 1.1M
20260428T00Z_MSC_GDPS_AirTemp_IsbL-1015_LatLon0.15_PT123H.grib2 2026-04-28 04:29 1.1M
20260428T00Z_MSC_GDPS_Albedo_Sfc_LatLon0.15_PT123H.grib2 2026-04-28 04:29 242K
20260428T00Z_MSC_GDPS_CAPE_Sfc_LatLon0.15_PT123H.grib2 2026-04-28 04:29 4.0M
20260428T00Z_MSC_GDPS_CIN_Sfc_LatLon0.15_PT123H.grib2 2026-04-28 04:29 2.9M
20260428T00Z_MSC_GDPS_CloudWater_EAtm_LatLon0.15_PT123H.grib2 2026-04-28 04:29 531K
20260428T00Z_MSC_GDPS_ConvectivePrecip-Accum_Sfc_LatLon0.15_PT123H.grib2 2026-04-28 04:29 3.6M
20260428T00Z_MSC_GDPS_DewPointDepression_AGL-2m_LatLon0.15_PT123H.grib2 2026-04-28 04:29 764K
20260428T00Z_MSC_GDPS_DewPointDepression_IsbL-0010_LatLon0.15_PT123H.grib2 2026-04-28 04:29 62K
20260428T00Z_MSC_GDPS_DewPointDepression_IsbL-0020_LatLon0.15_PT123H.grib2 2026-04-28 04:29 65K
20260428T00Z_MSC_GDPS_DewPointDepression_IsbL-0030_LatLon0.15_PT123H.grib2 2026-04-28 04:29 75K
20260428T00Z_MSC_GDPS_DewPointDepression_IsbL-0050_LatLon0.15_PT123H.grib2 2026-04-28 04:29 374K
20260428T00Z_MSC_GDPS_DewPointDepression_IsbL-0100_LatLon0.15_PT123H.grib2 2026-04-28 04:29 400K
20260428T00Z_MSC_GDPS_DewPointDepression_IsbL-0150_LatLon0.15_PT123H.grib2 2026-04-28 04:29 458K
20260428T00Z_MSC_GDPS_DewPointDepression_IsbL-0175_LatLon0.15_PT123H.grib2 2026-04-28 04:29 572K
20260428T00Z_MSC_GDPS_DewPointDepression_IsbL-0200_LatLon0.15_PT123H.grib2 2026-04-28 04:29 682K
20260428T00Z_MSC_GDPS_DewPointDepression_IsbL-0225_LatLon0.15_PT123H.grib2 2026-04-28 04:29 780K
20260428T00Z_MSC_GDPS_DewPointDepression_IsbL-0250_LatLon0.15_PT123H.grib2 2026-04-28 04:29 853K
20260428T00Z_MSC_GDPS_DewPointDepression_IsbL-0275_LatLon0.15_PT123H.grib2 2026-04-28 04:29 867K
20260428T00Z_MSC_GDPS_DewPointDepression_IsbL-0300_LatLon0.15_PT123H.grib2 2026-04-28 04:29 904K
20260428T00Z_MSC_GDPS_DewPointDepression_IsbL-0350_LatLon0.15_PT123H.grib2 2026-04-28 04:29 936K
20260428T00Z_MSC_GDPS_DewPointDepression_IsbL-0400_LatLon0.15_PT123H.grib2 2026-04-28 04:29 1.0M
20260428T00Z_MSC_GDPS_DewPointDepression_IsbL-0450_LatLon0.15_PT123H.grib2 2026-04-28 04:29 1.0M
20260428T00Z_MSC_GDPS_DewPointDepression_IsbL-0500_LatLon0.15_PT123H.grib2 2026-04-28 04:29 1.0M
20260428T00Z_MSC_GDPS_DewPointDepression_IsbL-0550_LatLon0.15_PT123H.grib2 2026-04-28 04:29 1.0M
20260428T00Z_MSC_GDPS_DewPointDepression_IsbL-0600_LatLon0.15_PT123H.grib2 2026-04-28 04:29 1.0M
20260428T00Z_MSC_GDPS_DewPointDepression_IsbL-0650_LatLon0.15_PT123H.grib2 2026-04-28 04:29 1.1M
20260428T00Z_MSC_GDPS_DewPointDepression_IsbL-0700_LatLon0.15_PT123H.grib2 2026-04-28 04:29 1.1M
20260428T00Z_MSC_GDPS_DewPointDepression_IsbL-0750_LatLon0.15_PT123H.grib2 2026-04-28 04:29 1.1M
20260428T00Z_MSC_GDPS_DewPointDepression_IsbL-0800_LatLon0.15_PT123H.grib2 2026-04-28 04:29 1.2M
20260428T00Z_MSC_GDPS_DewPointDepression_IsbL-0850_LatLon0.15_PT123H.grib2 2026-04-28 04:29 1.2M
20260428T00Z_MSC_GDPS_DewPointDepression_IsbL-0875_LatLon0.15_PT123H.grib2 2026-04-28 04:29 1.1M
20260428T00Z_MSC_GDPS_DewPointDepression_IsbL-0900_LatLon0.15_PT123H.grib2 2026-04-28 04:29 1.1M
20260428T00Z_MSC_GDPS_DewPointDepression_IsbL-0925_LatLon0.15_PT123H.grib2 2026-04-28 04:29 1.0M
20260428T00Z_MSC_GDPS_DewPointDepression_IsbL-0950_LatLon0.15_PT123H.grib2 2026-04-28 04:29 1.0M
20260428T00Z_MSC_GDPS_DewPointDepression_IsbL-0970_LatLon0.15_PT123H.grib2 2026-04-28 04:29 1.0M
20260428T00Z_MSC_GDPS_DewPointDepression_IsbL-0985_LatLon0.15_PT123H.grib2 2026-04-28 04:29 1.0M
20260428T00Z_MSC_GDPS_DewPointDepression_IsbL-1000_LatLon0.15_PT123H.grib2 2026-04-28 04:29 1.0M
20260428T00Z_MSC_GDPS_DewPointDepression_IsbL-1015_LatLon0.15_PT123H.grib2 2026-04-28 04:29 914K
20260428T00Z_MSC_GDPS_DewPoint_AGL-2m_LatLon0.15_PT123H.grib2 2026-04-28 04:29 602K
20260428T00Z_MSC_GDPS_DownwardLongwaveRadiationFlux-Accum_Sfc_LatLon0.15_PT123H.grib2 2026-04-28 04:29 807K
20260428T00Z_MSC_GDPS_DownwardShortwaveRadiationFlux-Accum_NTAtm_LatLon0.15_PT123H.grib2 2026-04-28 04:29 167K
20260428T00Z_MSC_GDPS_DownwardShortwaveRadiationFlux-Accum_Sfc_LatLon0.15_PT123H.grib2 2026-04-28 04:29 1.0M
20260428T00Z_MSC_GDPS_FreezingRain-Accum1h_Sfc_LatLon0.15_PT123H.grib2 2026-04-28 04:29 34K
20260428T00Z_MSC_GDPS_FreezingRain-Accum3h_Sfc_LatLon0.15_PT123H.grib2 2026-04-28 04:29 40K
20260428T00Z_MSC_GDPS_FreezingRain-Accum_Sfc_LatLon0.15_PT123H.grib2 2026-04-28 04:29 429K
20260428T00Z_MSC_GDPS_GeopotentialHeight_IsbL-0001_LatLon0.15_PT123H.grib2 2026-04-28 04:29 374K
20260428T00Z_MSC_GDPS_GeopotentialHeight_IsbL-0005_LatLon0.15_PT123H.grib2 2026-04-28 04:29 485K
20260428T00Z_MSC_GDPS_GeopotentialHeight_IsbL-0010_LatLon0.15_PT123H.grib2 2026-04-28 04:29 476K
20260428T00Z_MSC_GDPS_GeopotentialHeight_IsbL-0020_LatLon0.15_PT123H.grib2 2026-04-28 04:29 408K
20260428T00Z_MSC_GDPS_GeopotentialHeight_IsbL-0030_LatLon0.15_PT123H.grib2 2026-04-28 04:29 563K
20260428T00Z_MSC_GDPS_GeopotentialHeight_IsbL-0050_LatLon0.15_PT123H.grib2 2026-04-28 04:29 564K
20260428T00Z_MSC_GDPS_GeopotentialHeight_IsbL-0100_LatLon0.15_PT123H.grib2 2026-04-28 04:29 605K
20260428T00Z_MSC_GDPS_GeopotentialHeight_IsbL-0150_LatLon0.15_PT123H.grib2 2026-04-28 04:29 624K
20260428T00Z_MSC_GDPS_GeopotentialHeight_IsbL-0175_LatLon0.15_PT123H.grib2 2026-04-28 04:29 627K
20260428T00Z_MSC_GDPS_GeopotentialHeight_IsbL-0200_LatLon0.15_PT123H.grib2 2026-04-28 04:29 631K
20260428T00Z_MSC_GDPS_GeopotentialHeight_IsbL-0225_LatLon0.15_PT123H.grib2 2026-04-28 04:29 627K
20260428T00Z_MSC_GDPS_GeopotentialHeight_IsbL-0250_LatLon0.15_PT123H.grib2 2026-04-28 04:29 635K
20260428T00Z_MSC_GDPS_GeopotentialHeight_IsbL-0275_LatLon0.15_PT123H.grib2 2026-04-28 04:29 634K
20260428T00Z_MSC_GDPS_GeopotentialHeight_IsbL-0300_LatLon0.15_PT123H.grib2 2026-04-28 04:29 626K
20260428T00Z_MSC_GDPS_GeopotentialHeight_IsbL-0350_LatLon0.15_PT123H.grib2 2026-04-28 04:29 625K
20260428T00Z_MSC_GDPS_GeopotentialHeight_IsbL-0400_LatLon0.15_PT123H.grib2 2026-04-28 04:29 618K
20260428T00Z_MSC_GDPS_GeopotentialHeight_IsbL-0450_LatLon0.15_PT123H.grib2 2026-04-28 04:29 610K
20260428T00Z_MSC_GDPS_GeopotentialHeight_IsbL-0500_LatLon0.15_PT123H.grib2 2026-04-28 04:29 601K
20260428T00Z_MSC_GDPS_GeopotentialHeight_IsbL-0550_LatLon0.15_PT123H.grib2 2026-04-28 04:29 526K
20260428T00Z_MSC_GDPS_GeopotentialHeight_IsbL-0600_LatLon0.15_PT123H.grib2 2026-04-28 04:29 520K
20260428T00Z_MSC_GDPS_GeopotentialHeight_IsbL-0650_LatLon0.15_PT123H.grib2 2026-04-28 04:29 518K
20260428T00Z_MSC_GDPS_GeopotentialHeight_IsbL-0700_LatLon0.15_PT123H.grib2 2026-04-28 04:29 686K
20260428T00Z_MSC_GDPS_GeopotentialHeight_IsbL-0750_LatLon0.15_PT123H.grib2 2026-04-28 04:29 688K
20260428T00Z_MSC_GDPS_GeopotentialHeight_IsbL-0800_LatLon0.15_PT123H.grib2 2026-04-28 04:29 702K
20260428T00Z_MSC_GDPS_GeopotentialHeight_IsbL-0850_LatLon0.15_PT123H.grib2 2026-04-28 04:29 711K
20260428T00Z_MSC_GDPS_GeopotentialHeight_IsbL-0875_LatLon0.15_PT123H.grib2 2026-04-28 04:29 721K
20260428T00Z_MSC_GDPS_GeopotentialHeight_IsbL-0900_LatLon0.15_PT123H.grib2 2026-04-28 04:29 727K
20260428T00Z_MSC_GDPS_GeopotentialHeight_IsbL-0925_LatLon0.15_PT123H.grib2 2026-04-28 04:29 734K
20260428T00Z_MSC_GDPS_GeopotentialHeight_IsbL-0950_LatLon0.15_PT123H.grib2 2026-04-28 04:29 742K
20260428T00Z_MSC_GDPS_GeopotentialHeight_IsbL-0970_LatLon0.15_PT123H.grib2 2026-04-28 04:29 754K
20260428T00Z_MSC_GDPS_GeopotentialHeight_IsbL-0985_LatLon0.15_PT123H.grib2 2026-04-28 04:29 769K
20260428T00Z_MSC_GDPS_GeopotentialHeight_IsbL-1000_LatLon0.15_PT123H.grib2 2026-04-28 04:29 790K
20260428T00Z_MSC_GDPS_GeopotentialHeight_IsbL-1015_LatLon0.15_PT123H.grib2 2026-04-28 04:29 812K
20260428T00Z_MSC_GDPS_Humidex_Sfc_LatLon0.15_PT123H.grib2 2026-04-28 04:29 5.3M
20260428T00Z_MSC_GDPS_IcePellets-Accum1h_Sfc_LatLon0.15_PT123H.grib2 2026-04-28 04:29 7.9K
20260428T00Z_MSC_GDPS_IcePellets-Accum3h_Sfc_LatLon0.15_PT123H.grib2 2026-04-28 04:29 9.7K
20260428T00Z_MSC_GDPS_IcePellets-Accum_Sfc_LatLon0.15_PT123H.grib2 2026-04-28 04:29 119K
20260428T00Z_MSC_GDPS_KIndex_Sfc_LatLon0.15_PT123H.grib2 2026-04-28 04:29 6.5M
20260428T00Z_MSC_GDPS_LatentHeatNetFlux_Sfc_LatLon0.15_PT123H.grib2 2026-04-28 04:29 681K
20260428T00Z_MSC_GDPS_LiftedIndex-MU-VT_IsbL-0500_LatLon0.15_PT123H.grib2 2026-04-28 04:29 5.3M
20260428T00Z_MSC_GDPS_NetLongwaveRadiationFlux-Accum_Sfc_LatLon0.15_PT123H.grib2 2026-04-28 04:29 1.0M
20260428T00Z_MSC_GDPS_NetShortwaveRadiationFlux-Accum_Sfc_LatLon0.15_PT123H.grib2 2026-04-28 04:29 1.0M
20260428T00Z_MSC_GDPS_O3MixingRatio_LatLon0.15_PT123H.grib2 2026-04-28 04:54 1.9M
20260428T00Z_MSC_GDPS_O3_EAtm_LatLon0.15_PT123H.grib2 2026-04-28 04:54 2.4M
20260428T00Z_MSC_GDPS_PlanetaryBoundaryLayerHeight_Sfc_LatLon0.15_PT123H.grib2 2026-04-28 04:29 2.4M
20260428T00Z_MSC_GDPS_Precip-Accum1h_Sfc_LatLon0.15_PT123H.grib2 2026-04-28 04:29 3.2M
20260428T00Z_MSC_GDPS_Precip-Accum3h_Sfc_LatLon0.15_PT123H.grib2 2026-04-28 04:29 3.5M
20260428T00Z_MSC_GDPS_Precip-Accum_Sfc_LatLon0.15_PT123H.grib2 2026-04-28 04:29 5.2M
20260428T00Z_MSC_GDPS_PrecipRate_Sfc_LatLon0.15_PT123H.grib2 2026-04-28 04:29 3.0M
20260428T00Z_MSC_GDPS_PrecipType-Instant_Sfc_LatLon0.15_PT123H.grib2 2026-04-28 04:29 1.5M
20260428T00Z_MSC_GDPS_Pressure_MSL_LatLon0.15_PT123H.grib2 2026-04-28 04:29 723K
20260428T00Z_MSC_GDPS_Pressure_PVU-1.5_LatLon0.15_PT123H.grib2 2026-04-28 04:29 5.8M
20260428T00Z_MSC_GDPS_Pressure_PVU-1_LatLon0.15_PT123H.grib2 2026-04-28 04:29 6.0M
20260428T00Z_MSC_GDPS_Pressure_PVU-2_LatLon0.15_PT123H.grib2 2026-04-28 04:29 5.6M
20260428T00Z_MSC_GDPS_Pressure_Sfc_LatLon0.15_PT123H.grib2 2026-04-28 04:29 1.1M
20260428T00Z_MSC_GDPS_RadiativeTemp_Sfc_LatLon0.15_PT123H.grib2 2026-04-28 04:29 663K
20260428T00Z_MSC_GDPS_Rain-Accum1h_Sfc_LatLon0.15_PT123H.grib2 2026-04-28 04:29 1.6M
20260428T00Z_MSC_GDPS_Rain-Accum3h_Sfc_LatLon0.15_PT123H.grib2 2026-04-28 04:29 1.8M
20260428T00Z_MSC_GDPS_Rain-Accum_Sfc_LatLon0.15_PT123H.grib2 2026-04-28 04:29 4.0M
20260428T00Z_MSC_GDPS_RelativeHumidity_AGL-2m_LatLon0.15_PT123H.grib2 2026-04-28 04:29 1.1M
20260428T00Z_MSC_GDPS_RelativeHumidity_IsbL-0010_LatLon0.15_PT123H.grib2 2026-04-28 04:29 127K
20260428T00Z_MSC_GDPS_RelativeHumidity_IsbL-0020_LatLon0.15_PT123H.grib2 2026-04-28 04:29 159K
20260428T00Z_MSC_GDPS_RelativeHumidity_IsbL-0030_LatLon0.15_PT123H.grib2 2026-04-28 04:29 263K
20260428T00Z_MSC_GDPS_RelativeHumidity_IsbL-0050_LatLon0.15_PT123H.grib2 2026-04-28 04:29 415K
20260428T00Z_MSC_GDPS_RelativeHumidity_IsbL-0100_LatLon0.15_PT123H.grib2 2026-04-28 04:29 497K
20260428T00Z_MSC_GDPS_RelativeHumidity_IsbL-0150_LatLon0.15_PT123H.grib2 2026-04-28 04:29 654K
20260428T00Z_MSC_GDPS_RelativeHumidity_IsbL-0175_LatLon0.15_PT123H.grib2 2026-04-28 04:29 776K
20260428T00Z_MSC_GDPS_RelativeHumidity_IsbL-0200_LatLon0.15_PT123H.grib2 2026-04-28 04:29 704K
20260428T00Z_MSC_GDPS_RelativeHumidity_IsbL-0225_LatLon0.15_PT123H.grib2 2026-04-28 04:29 789K
20260428T00Z_MSC_GDPS_RelativeHumidity_IsbL-0250_LatLon0.15_PT123H.grib2 2026-04-28 04:29 856K
20260428T00Z_MSC_GDPS_RelativeHumidity_IsbL-0275_LatLon0.15_PT123H.grib2 2026-04-28 04:29 875K
20260428T00Z_MSC_GDPS_RelativeHumidity_IsbL-0300_LatLon0.15_PT123H.grib2 2026-04-28 04:29 915K
20260428T00Z_MSC_GDPS_RelativeHumidity_IsbL-0350_LatLon0.15_PT123H.grib2 2026-04-28 04:29 936K
20260428T00Z_MSC_GDPS_RelativeHumidity_IsbL-0400_LatLon0.15_PT123H.grib2 2026-04-28 04:29 966K
20260428T00Z_MSC_GDPS_RelativeHumidity_IsbL-0450_LatLon0.15_PT123H.grib2 2026-04-28 04:29 1.0M
20260428T00Z_MSC_GDPS_RelativeHumidity_IsbL-0500_LatLon0.15_PT123H.grib2 2026-04-28 04:29 1.0M
20260428T00Z_MSC_GDPS_RelativeHumidity_IsbL-0550_LatLon0.15_PT123H.grib2 2026-04-28 04:29 1.0M
20260428T00Z_MSC_GDPS_RelativeHumidity_IsbL-0600_LatLon0.15_PT123H.grib2 2026-04-28 04:29 1.1M
20260428T00Z_MSC_GDPS_RelativeHumidity_IsbL-0650_LatLon0.15_PT123H.grib2 2026-04-28 04:29 1.1M
20260428T00Z_MSC_GDPS_RelativeHumidity_IsbL-0700_LatLon0.15_PT123H.grib2 2026-04-28 04:29 1.1M
20260428T00Z_MSC_GDPS_RelativeHumidity_IsbL-0750_LatLon0.15_PT123H.grib2 2026-04-28 04:29 1.2M
20260428T00Z_MSC_GDPS_RelativeHumidity_IsbL-0800_LatLon0.15_PT123H.grib2 2026-04-28 04:29 1.2M
20260428T00Z_MSC_GDPS_RelativeHumidity_IsbL-0850_LatLon0.15_PT123H.grib2 2026-04-28 04:29 1.3M
20260428T00Z_MSC_GDPS_RelativeHumidity_IsbL-0875_LatLon0.15_PT123H.grib2 2026-04-28 04:29 1.3M
20260428T00Z_MSC_GDPS_RelativeHumidity_IsbL-0900_LatLon0.15_PT123H.grib2 2026-04-28 04:29 1.2M
20260428T00Z_MSC_GDPS_RelativeHumidity_IsbL-0925_LatLon0.15_PT123H.grib2 2026-04-28 04:29 1.2M
20260428T00Z_MSC_GDPS_RelativeHumidity_IsbL-0950_LatLon0.15_PT123H.grib2 2026-04-28 04:29 1.2M
20260428T00Z_MSC_GDPS_RelativeHumidity_IsbL-0970_LatLon0.15_PT123H.grib2 2026-04-28 04:29 1.2M
20260428T00Z_MSC_GDPS_RelativeHumidity_IsbL-0985_LatLon0.15_PT123H.grib2 2026-04-28 04:29 1.1M
20260428T00Z_MSC_GDPS_RelativeHumidity_IsbL-1000_LatLon0.15_PT123H.grib2 2026-04-28 04:29 1.1M
20260428T00Z_MSC_GDPS_RelativeHumidity_IsbL-1015_LatLon0.15_PT123H.grib2 2026-04-28 04:29 1.0M
20260428T00Z_MSC_GDPS_RelativeVorticity_IsbL-0200_LatLon0.15_PT123H.grib2 2026-04-28 04:29 1.5M
20260428T00Z_MSC_GDPS_RelativeVorticity_IsbL-0250_LatLon0.15_PT123H.grib2 2026-04-28 04:29 1.3M
20260428T00Z_MSC_GDPS_RelativeVorticity_IsbL-0500_LatLon0.15_PT123H.grib2 2026-04-28 04:29 1.4M
20260428T00Z_MSC_GDPS_RelativeVorticity_IsbL-0700_LatLon0.15_PT123H.grib2 2026-04-28 04:29 1.3M
20260428T00Z_MSC_GDPS_RelativeVorticity_IsbL-0850_LatLon0.15_PT123H.grib2 2026-04-28 04:29 1.6M
20260428T00Z_MSC_GDPS_Runoff-Accum_Sfc_LatLon0.15_PT123H.grib2 2026-04-28 04:29 144K
20260428T00Z_MSC_GDPS_SensibleHeatNetFlux_Sfc_LatLon0.15_PT123H.grib2 2026-04-28 04:29 624K
20260428T00Z_MSC_GDPS_ShowalterIndex_IsbL-0500_LatLon0.15_PT123H.grib2 2026-04-28 04:29 6.2M
20260428T00Z_MSC_GDPS_Snow-Accum1h_Sfc_LatLon0.15_PT123H.grib2 2026-04-28 04:29 1.1M
20260428T00Z_MSC_GDPS_Snow-Accum3h_Sfc_LatLon0.15_PT123H.grib2 2026-04-28 04:29 1.1M
20260428T00Z_MSC_GDPS_Snow-Accum_Sfc_LatLon0.15_PT123H.grib2 2026-04-28 04:29 2.1M
20260428T00Z_MSC_GDPS_SnowDensity_Sfc_LatLon0.15_PT123H.grib2 2026-04-28 04:29 269K
20260428T00Z_MSC_GDPS_SnowDepth_Sfc_LatLon0.15_PT123H.grib2 2026-04-28 04:29 1.7M
20260428T00Z_MSC_GDPS_SoilTemp_DBS-0to10cm_LatLon0.15_PT123H.grib2 2026-04-28 04:29 508K
20260428T00Z_MSC_GDPS_SoilTemp_Sfc_LatLon0.15_PT123H.grib2 2026-04-28 04:29 570K
20260428T00Z_MSC_GDPS_SoilVolumetricIceContent_Sfc_LatLon0.15_PT123H.grib2 2026-04-28 04:29 200K
20260428T00Z_MSC_GDPS_SoilVolumetricWaterContent_DBS-0to10cm_LatLon0.15_PT123H.grib2 2026-04-28 04:29 588K
20260428T00Z_MSC_GDPS_SoilVolumetricWaterContent_DBS-0to1cm_LatLon0.15_PT123H.grib2 2026-04-28 04:29 648K
20260428T00Z_MSC_GDPS_SpecificHumidity_AGL-120m_LatLon0.15_PT123H.grib2 2026-04-28 04:29 1.1M
20260428T00Z_MSC_GDPS_SpecificHumidity_AGL-2m_LatLon0.15_PT123H.grib2 2026-04-28 04:29 1.2M
20260428T00Z_MSC_GDPS_SpecificHumidity_AGL-40m_LatLon0.15_PT123H.grib2 2026-04-28 04:29 1.1M
20260428T00Z_MSC_GDPS_SpecificHumidity_AGL-80m_LatLon0.15_PT123H.grib2 2026-04-28 04:29 1.1M
20260428T00Z_MSC_GDPS_SpecificHumidity_IsbL-0001_LatLon0.15_PT123H.grib2 2026-04-28 04:29 1.2M
20260428T00Z_MSC_GDPS_SpecificHumidity_IsbL-0005_LatLon0.15_PT123H.grib2 2026-04-28 04:29 1.1M
20260428T00Z_MSC_GDPS_SpecificHumidity_IsbL-0010_LatLon0.15_PT123H.grib2 2026-04-28 04:29 1.3M
20260428T00Z_MSC_GDPS_SpecificHumidity_IsbL-0020_LatLon0.15_PT123H.grib2 2026-04-28 04:29 1.3M
20260428T00Z_MSC_GDPS_SpecificHumidity_IsbL-0030_LatLon0.15_PT123H.grib2 2026-04-28 04:29 1.3M
20260428T00Z_MSC_GDPS_SpecificHumidity_IsbL-0050_LatLon0.15_PT123H.grib2 2026-04-28 04:29 1.6M
20260428T00Z_MSC_GDPS_SpecificHumidity_IsbL-0100_LatLon0.15_PT123H.grib2 2026-04-28 04:29 1.3M
20260428T00Z_MSC_GDPS_SpecificHumidity_IsbL-0150_LatLon0.15_PT123H.grib2 2026-04-28 04:29 1.3M
20260428T00Z_MSC_GDPS_SpecificHumidity_IsbL-0175_LatLon0.15_PT123H.grib2 2026-04-28 04:29 1.2M
20260428T00Z_MSC_GDPS_SpecificHumidity_IsbL-0200_LatLon0.15_PT123H.grib2 2026-04-28 04:29 1.3M
20260428T00Z_MSC_GDPS_SpecificHumidity_IsbL-0225_LatLon0.15_PT123H.grib2 2026-04-28 04:29 1.3M
20260428T00Z_MSC_GDPS_SpecificHumidity_IsbL-0250_LatLon0.15_PT123H.grib2 2026-04-28 04:29 1.4M
20260428T00Z_MSC_GDPS_SpecificHumidity_IsbL-0275_LatLon0.15_PT123H.grib2 2026-04-28 04:29 1.3M
20260428T00Z_MSC_GDPS_SpecificHumidity_IsbL-0300_LatLon0.15_PT123H.grib2 2026-04-28 04:29 1.2M
20260428T00Z_MSC_GDPS_SpecificHumidity_IsbL-0350_LatLon0.15_PT123H.grib2 2026-04-28 04:29 1.2M
20260428T00Z_MSC_GDPS_SpecificHumidity_IsbL-0400_LatLon0.15_PT123H.grib2 2026-04-28 04:29 1.4M
20260428T00Z_MSC_GDPS_SpecificHumidity_IsbL-0450_LatLon0.15_PT123H.grib2 2026-04-28 04:29 1.6M
20260428T00Z_MSC_GDPS_SpecificHumidity_IsbL-0500_LatLon0.15_PT123H.grib2 2026-04-28 04:29 1.4M
20260428T00Z_MSC_GDPS_SpecificHumidity_IsbL-0550_LatLon0.15_PT123H.grib2 2026-04-28 04:29 1.6M
20260428T00Z_MSC_GDPS_SpecificHumidity_IsbL-0600_LatLon0.15_PT123H.grib2 2026-04-28 04:29 1.7M
20260428T00Z_MSC_GDPS_SpecificHumidity_IsbL-0650_LatLon0.15_PT123H.grib2 2026-04-28 04:29 1.5M
20260428T00Z_MSC_GDPS_SpecificHumidity_IsbL-0700_LatLon0.15_PT123H.grib2 2026-04-28 04:29 1.6M
20260428T00Z_MSC_GDPS_SpecificHumidity_IsbL-0750_LatLon0.15_PT123H.grib2 2026-04-28 04:29 1.7M
20260428T00Z_MSC_GDPS_SpecificHumidity_IsbL-0800_LatLon0.15_PT123H.grib2 2026-04-28 04:29 1.8M
20260428T00Z_MSC_GDPS_SpecificHumidity_IsbL-0850_LatLon0.15_PT123H.grib2 2026-04-28 04:29 1.9M
20260428T00Z_MSC_GDPS_SpecificHumidity_IsbL-0875_LatLon0.15_PT123H.grib2 2026-04-28 04:29 1.9M
20260428T00Z_MSC_GDPS_SpecificHumidity_IsbL-0900_LatLon0.15_PT123H.grib2 2026-04-28 04:29 1.9M
20260428T00Z_MSC_GDPS_SpecificHumidity_IsbL-0925_LatLon0.15_PT123H.grib2 2026-04-28 04:29 1.6M
20260428T00Z_MSC_GDPS_SpecificHumidity_IsbL-0950_LatLon0.15_PT123H.grib2 2026-04-28 04:29 1.6M
20260428T00Z_MSC_GDPS_SpecificHumidity_IsbL-0970_LatLon0.15_PT123H.grib2 2026-04-28 04:29 1.5M
20260428T00Z_MSC_GDPS_SpecificHumidity_IsbL-0985_LatLon0.15_PT123H.grib2 2026-04-28 04:29 1.5M
20260428T00Z_MSC_GDPS_SpecificHumidity_IsbL-1000_LatLon0.15_PT123H.grib2 2026-04-28 04:29 1.5M
20260428T00Z_MSC_GDPS_SpecificHumidity_IsbL-1015_LatLon0.15_PT123H.grib2 2026-04-28 04:29 1.4M
20260428T00Z_MSC_GDPS_SpecificHumidity_Sfc_LatLon0.15_PT123H.grib2 2026-04-28 04:29 634K
20260428T00Z_MSC_GDPS_Thickness_IsbL-0850to0700_LatLon0.15_PT123H.grib2 2026-04-28 04:29 463K
20260428T00Z_MSC_GDPS_Thickness_IsbL-1000to0500_LatLon0.15_PT123H.grib2 2026-04-28 04:29 368K
20260428T00Z_MSC_GDPS_Thickness_IsbL-1000to0850_LatLon0.15_PT123H.grib2 2026-04-28 04:29 487K
20260428T00Z_MSC_GDPS_TotalCloudCover_Sfc_LatLon0.15_PT123H.grib2 2026-04-28 04:29 825K
20260428T00Z_MSC_GDPS_TotalTotalsIndex_Sfc_LatLon0.15_PT123H.grib2 2026-04-28 04:29 6.2M
20260428T00Z_MSC_GDPS_UVIndex-ClearSky_Sfc_LatLon0.15_PT123H.grib2 2026-04-28 04:54 1.0M
20260428T00Z_MSC_GDPS_UVIndex_Sfc_LatLon0.15_PT123H.grib2 2026-04-28 04:54 1.5M
20260428T00Z_MSC_GDPS_UpwardLongwaveRadiationFlux_NTAtm_LatLon0.15_PT123H.grib2 2026-04-28 04:29 1.1M
20260428T00Z_MSC_GDPS_VerticalVelocity_IsbL-0200_LatLon0.15_PT123H.grib2 2026-04-28 04:29 1.2M
20260428T00Z_MSC_GDPS_VerticalVelocity_IsbL-0250_LatLon0.15_PT123H.grib2 2026-04-28 04:29 1.0M
20260428T00Z_MSC_GDPS_VerticalVelocity_IsbL-0500_LatLon0.15_PT123H.grib2 2026-04-28 04:29 1.2M
20260428T00Z_MSC_GDPS_VerticalVelocity_IsbL-0600_LatLon0.15_PT123H.grib2 2026-04-28 04:29 1.3M
20260428T00Z_MSC_GDPS_VerticalVelocity_IsbL-0700_LatLon0.15_PT123H.grib2 2026-04-28 04:29 1.4M
20260428T00Z_MSC_GDPS_VerticalVelocity_IsbL-0850_LatLon0.15_PT123H.grib2 2026-04-28 04:29 1.3M
20260428T00Z_MSC_GDPS_WindChill_Sfc_LatLon0.15_PT123H.grib2 2026-04-28 04:29 5.3M
20260428T00Z_MSC_GDPS_WindDir_AGL-10m_LatLon0.15_PT123H.grib2 2026-04-28 04:29 1.3M
20260428T00Z_MSC_GDPS_WindDir_AGL-120m_LatLon0.15_PT123H.grib2 2026-04-28 04:29 1.3M
20260428T00Z_MSC_GDPS_WindDir_AGL-40m_LatLon0.15_PT123H.grib2 2026-04-28 04:29 1.4M
20260428T00Z_MSC_GDPS_WindDir_AGL-80m_LatLon0.15_PT123H.grib2 2026-04-28 04:29 1.4M
20260428T00Z_MSC_GDPS_WindDir_IsbL-0001_LatLon0.15_PT123H.grib2 2026-04-28 04:29 679K
20260428T00Z_MSC_GDPS_WindDir_IsbL-0005_LatLon0.15_PT123H.grib2 2026-04-28 04:29 799K
20260428T00Z_MSC_GDPS_WindDir_IsbL-0010_LatLon0.15_PT123H.grib2 2026-04-28 04:29 827K
20260428T00Z_MSC_GDPS_WindDir_IsbL-0020_LatLon0.15_PT123H.grib2 2026-04-28 04:29 936K
20260428T00Z_MSC_GDPS_WindDir_IsbL-0030_LatLon0.15_PT123H.grib2 2026-04-28 04:29 927K
20260428T00Z_MSC_GDPS_WindDir_IsbL-0050_LatLon0.15_PT123H.grib2 2026-04-28 04:29 943K
20260428T00Z_MSC_GDPS_WindDir_IsbL-0100_LatLon0.15_PT123H.grib2 2026-04-28 04:29 1.0M
20260428T00Z_MSC_GDPS_WindDir_IsbL-0150_LatLon0.15_PT123H.grib2 2026-04-28 04:29 1.0M
20260428T00Z_MSC_GDPS_WindDir_IsbL-0175_LatLon0.15_PT123H.grib2 2026-04-28 04:29 1.0M
20260428T00Z_MSC_GDPS_WindDir_IsbL-0200_LatLon0.15_PT123H.grib2 2026-04-28 04:29 1.1M
20260428T00Z_MSC_GDPS_WindDir_IsbL-0225_LatLon0.15_PT123H.grib2 2026-04-28 04:29 1.1M
20260428T00Z_MSC_GDPS_WindDir_IsbL-0250_LatLon0.15_PT123H.grib2 2026-04-28 04:29 1.1M
20260428T00Z_MSC_GDPS_WindDir_IsbL-0275_LatLon0.15_PT123H.grib2 2026-04-28 04:29 1.2M
20260428T00Z_MSC_GDPS_WindDir_IsbL-0300_LatLon0.15_PT123H.grib2 2026-04-28 04:29 1.2M
20260428T00Z_MSC_GDPS_WindDir_IsbL-0350_LatLon0.15_PT123H.grib2 2026-04-28 04:29 1.2M
20260428T00Z_MSC_GDPS_WindDir_IsbL-0400_LatLon0.15_PT123H.grib2 2026-04-28 04:29 1.3M
20260428T00Z_MSC_GDPS_WindDir_IsbL-0450_LatLon0.15_PT123H.grib2 2026-04-28 04:29 1.3M
20260428T00Z_MSC_GDPS_WindDir_IsbL-0500_LatLon0.15_PT123H.grib2 2026-04-28 04:29 1.3M
20260428T00Z_MSC_GDPS_WindDir_IsbL-0550_LatLon0.15_PT123H.grib2 2026-04-28 04:29 1.4M
20260428T00Z_MSC_GDPS_WindDir_IsbL-0600_LatLon0.15_PT123H.grib2 2026-04-28 04:29 1.4M
20260428T00Z_MSC_GDPS_WindDir_IsbL-0650_LatLon0.15_PT123H.grib2 2026-04-28 04:29 1.5M
20260428T00Z_MSC_GDPS_WindDir_IsbL-0700_LatLon0.15_PT123H.grib2 2026-04-28 04:29 1.6M
20260428T00Z_MSC_GDPS_WindDir_IsbL-0750_LatLon0.15_PT123H.grib2 2026-04-28 04:29 1.7M
20260428T00Z_MSC_GDPS_WindDir_IsbL-0800_LatLon0.15_PT123H.grib2 2026-04-28 04:29 1.8M
20260428T00Z_MSC_GDPS_WindDir_IsbL-0850_LatLon0.15_PT123H.grib2 2026-04-28 04:29 1.9M
20260428T00Z_MSC_GDPS_WindDir_IsbL-0875_LatLon0.15_PT123H.grib2 2026-04-28 04:29 1.9M
20260428T00Z_MSC_GDPS_WindDir_IsbL-0900_LatLon0.15_PT123H.grib2 2026-04-28 04:29 2.0M
20260428T00Z_MSC_GDPS_WindDir_IsbL-0925_LatLon0.15_PT123H.grib2 2026-04-28 04:29 2.0M
20260428T00Z_MSC_GDPS_WindDir_IsbL-0950_LatLon0.15_PT123H.grib2 2026-04-28 04:29 2.0M
20260428T00Z_MSC_GDPS_WindDir_IsbL-0970_LatLon0.15_PT123H.grib2 2026-04-28 04:29 2.0M
20260428T00Z_MSC_GDPS_WindDir_IsbL-0985_LatLon0.15_PT123H.grib2 2026-04-28 04:29 2.0M
20260428T00Z_MSC_GDPS_WindDir_IsbL-1000_LatLon0.15_PT123H.grib2 2026-04-28 04:29 2.1M
20260428T00Z_MSC_GDPS_WindDir_IsbL-1015_LatLon0.15_PT123H.grib2 2026-04-28 04:29 2.0M
20260428T00Z_MSC_GDPS_WindGust-Max_AGL-10m_LatLon0.15_PT123H.grib2 2026-04-28 04:29 2.2M
20260428T00Z_MSC_GDPS_WindGust-Min_AGL-10m_LatLon0.15_PT123H.grib2 2026-04-28 04:29 2.1M
20260428T00Z_MSC_GDPS_WindGust_AGL-10m_LatLon0.15_PT123H.grib2 2026-04-28 04:29 2.1M
20260428T00Z_MSC_GDPS_WindSpeed_AGL-10m_LatLon0.15_PT123H.grib2 2026-04-28 04:29 1.1M
20260428T00Z_MSC_GDPS_WindSpeed_AGL-120m_LatLon0.15_PT123H.grib2 2026-04-28 04:29 1.2M
20260428T00Z_MSC_GDPS_WindSpeed_AGL-40m_LatLon0.15_PT123H.grib2 2026-04-28 04:29 1.2M
20260428T00Z_MSC_GDPS_WindSpeed_AGL-80m_LatLon0.15_PT123H.grib2 2026-04-28 04:29 1.2M
20260428T00Z_MSC_GDPS_WindSpeed_IsbL-0001_LatLon0.15_PT123H.grib2 2026-04-28 04:29 638K
20260428T00Z_MSC_GDPS_WindSpeed_IsbL-0005_LatLon0.15_PT123H.grib2 2026-04-28 04:29 685K
20260428T00Z_MSC_GDPS_WindSpeed_IsbL-0010_LatLon0.15_PT123H.grib2 2026-04-28 04:29 621K
20260428T00Z_MSC_GDPS_WindSpeed_IsbL-0020_LatLon0.15_PT123H.grib2 2026-04-28 04:29 660K
20260428T00Z_MSC_GDPS_WindSpeed_IsbL-0030_LatLon0.15_PT123H.grib2 2026-04-28 04:29 853K
20260428T00Z_MSC_GDPS_WindSpeed_IsbL-0050_LatLon0.15_PT123H.grib2 2026-04-28 04:29 898K
20260428T00Z_MSC_GDPS_WindSpeed_IsbL-0100_LatLon0.15_PT123H.grib2 2026-04-28 04:29 1.1M
20260428T00Z_MSC_GDPS_WindSpeed_IsbL-0150_LatLon0.15_PT123H.grib2 2026-04-28 04:29 1.0M
20260428T00Z_MSC_GDPS_WindSpeed_IsbL-0175_LatLon0.15_PT123H.grib2 2026-04-28 04:29 1.0M
20260428T00Z_MSC_GDPS_WindSpeed_IsbL-0200_LatLon0.15_PT123H.grib2 2026-04-28 04:29 1.1M
20260428T00Z_MSC_GDPS_WindSpeed_IsbL-0225_LatLon0.15_PT123H.grib2 2026-04-28 04:29 1.1M
20260428T00Z_MSC_GDPS_WindSpeed_IsbL-0250_LatLon0.15_PT123H.grib2 2026-04-28 04:29 1.1M
20260428T00Z_MSC_GDPS_WindSpeed_IsbL-0275_LatLon0.15_PT123H.grib2 2026-04-28 04:29 1.1M
20260428T00Z_MSC_GDPS_WindSpeed_IsbL-0300_LatLon0.15_PT123H.grib2 2026-04-28 04:29 1.1M
20260428T00Z_MSC_GDPS_WindSpeed_IsbL-0350_LatLon0.15_PT123H.grib2 2026-04-28 04:29 1.1M
20260428T00Z_MSC_GDPS_WindSpeed_IsbL-0400_LatLon0.15_PT123H.grib2 2026-04-28 04:29 1.1M
20260428T00Z_MSC_GDPS_WindSpeed_IsbL-0450_LatLon0.15_PT123H.grib2 2026-04-28 04:29 1.1M
20260428T00Z_MSC_GDPS_WindSpeed_IsbL-0500_LatLon0.15_PT123H.grib2 2026-04-28 04:29 1.1M
20260428T00Z_MSC_GDPS_WindSpeed_IsbL-0550_LatLon0.15_PT123H.grib2 2026-04-28 04:29 1.1M
20260428T00Z_MSC_GDPS_WindSpeed_IsbL-0600_LatLon0.15_PT123H.grib2 2026-04-28 04:29 1.4M
20260428T00Z_MSC_GDPS_WindSpeed_IsbL-0650_LatLon0.15_PT123H.grib2 2026-04-28 04:29 1.4M
20260428T00Z_MSC_GDPS_WindSpeed_IsbL-0700_LatLon0.15_PT123H.grib2 2026-04-28 04:29 1.5M
20260428T00Z_MSC_GDPS_WindSpeed_IsbL-0750_LatLon0.15_PT123H.grib2 2026-04-28 04:29 1.5M
20260428T00Z_MSC_GDPS_WindSpeed_IsbL-0800_LatLon0.15_PT123H.grib2 2026-04-28 04:29 1.6M
20260428T00Z_MSC_GDPS_WindSpeed_IsbL-0850_LatLon0.15_PT123H.grib2 2026-04-28 04:29 1.7M
20260428T00Z_MSC_GDPS_WindSpeed_IsbL-0875_LatLon0.15_PT123H.grib2 2026-04-28 04:29 1.8M
20260428T00Z_MSC_GDPS_WindSpeed_IsbL-0900_LatLon0.15_PT123H.grib2 2026-04-28 04:29 1.8M
20260428T00Z_MSC_GDPS_WindSpeed_IsbL-0925_LatLon0.15_PT123H.grib2 2026-04-28 04:29 1.8M
20260428T00Z_MSC_GDPS_WindSpeed_IsbL-0950_LatLon0.15_PT123H.grib2 2026-04-28 04:29 1.9M
20260428T00Z_MSC_GDPS_WindSpeed_IsbL-0970_LatLon0.15_PT123H.grib2 2026-04-28 04:29 1.9M
20260428T00Z_MSC_GDPS_WindSpeed_IsbL-0985_LatLon0.15_PT123H.grib2 2026-04-28 04:29 1.9M
20260428T00Z_MSC_GDPS_WindSpeed_IsbL-1000_LatLon0.15_PT123H.grib2 2026-04-28 04:29 1.9M
20260428T00Z_MSC_GDPS_WindSpeed_IsbL-1015_LatLon0.15_PT123H.grib2 2026-04-28 04:29 1.8M
20260428T00Z_MSC_GDPS_WindU_AGL-10m_LatLon0.15_PT123H.grib2 2026-04-28 04:29 1.3M
20260428T00Z_MSC_GDPS_WindU_AGL-120m_LatLon0.15_PT123H.grib2 2026-04-28 04:29 1.0M
20260428T00Z_MSC_GDPS_WindU_AGL-40m_LatLon0.15_PT123H.grib2 2026-04-28 04:29 967K
20260428T00Z_MSC_GDPS_WindU_AGL-80m_LatLon0.15_PT123H.grib2 2026-04-28 04:29 973K
20260428T00Z_MSC_GDPS_WindU_IsbL-0001_LatLon0.15_PT123H.grib2 2026-04-28 04:29 499K
20260428T00Z_MSC_GDPS_WindU_IsbL-0005_LatLon0.15_PT123H.grib2 2026-04-28 04:29 684K
20260428T00Z_MSC_GDPS_WindU_IsbL-0010_LatLon0.15_PT123H.grib2 2026-04-28 04:29 696K
20260428T00Z_MSC_GDPS_WindU_IsbL-0020_LatLon0.15_PT123H.grib2 2026-04-28 04:29 725K
20260428T00Z_MSC_GDPS_WindU_IsbL-0030_LatLon0.15_PT123H.grib2 2026-04-28 04:29 731K
20260428T00Z_MSC_GDPS_WindU_IsbL-0050_LatLon0.15_PT123H.grib2 2026-04-28 04:29 763K
20260428T00Z_MSC_GDPS_WindU_IsbL-0100_LatLon0.15_PT123H.grib2 2026-04-28 04:29 913K
20260428T00Z_MSC_GDPS_WindU_IsbL-0150_LatLon0.15_PT123H.grib2 2026-04-28 04:29 1.0M
20260428T00Z_MSC_GDPS_WindU_IsbL-0175_LatLon0.15_PT123H.grib2 2026-04-28 04:29 1.0M
20260428T00Z_MSC_GDPS_WindU_IsbL-0200_LatLon0.15_PT123H.grib2 2026-04-28 04:29 1.0M
20260428T00Z_MSC_GDPS_WindU_IsbL-0225_LatLon0.15_PT123H.grib2 2026-04-28 04:29 846K
20260428T00Z_MSC_GDPS_WindU_IsbL-0250_LatLon0.15_PT123H.grib2 2026-04-28 04:29 848K
20260428T00Z_MSC_GDPS_WindU_IsbL-0275_LatLon0.15_PT123H.grib2 2026-04-28 04:29 876K
20260428T00Z_MSC_GDPS_WindU_IsbL-0300_LatLon0.15_PT123H.grib2 2026-04-28 04:29 869K
20260428T00Z_MSC_GDPS_WindU_IsbL-0350_LatLon0.15_PT123H.grib2 2026-04-28 04:29 883K
20260428T00Z_MSC_GDPS_WindU_IsbL-0400_LatLon0.15_PT123H.grib2 2026-04-28 04:29 887K
20260428T00Z_MSC_GDPS_WindU_IsbL-0450_LatLon0.15_PT123H.grib2 2026-04-28 04:29 888K
20260428T00Z_MSC_GDPS_WindU_IsbL-0500_LatLon0.15_PT123H.grib2 2026-04-28 04:29 1.1M
20260428T00Z_MSC_GDPS_WindU_IsbL-0550_LatLon0.15_PT123H.grib2 2026-04-28 04:29 1.1M
20260428T00Z_MSC_GDPS_WindU_IsbL-0600_LatLon0.15_PT123H.grib2 2026-04-28 04:29 1.1M
20260428T00Z_MSC_GDPS_WindU_IsbL-0650_LatLon0.15_PT123H.grib2 2026-04-28 04:29 1.2M
20260428T00Z_MSC_GDPS_WindU_IsbL-0700_LatLon0.15_PT123H.grib2 2026-04-28 04:29 1.2M
20260428T00Z_MSC_GDPS_WindU_IsbL-0750_LatLon0.15_PT123H.grib2 2026-04-28 04:29 1.3M
20260428T00Z_MSC_GDPS_WindU_IsbL-0800_LatLon0.15_PT123H.grib2 2026-04-28 04:29 1.3M
20260428T00Z_MSC_GDPS_WindU_IsbL-0850_LatLon0.15_PT123H.grib2 2026-04-28 04:29 1.4M
20260428T00Z_MSC_GDPS_WindU_IsbL-0875_LatLon0.15_PT123H.grib2 2026-04-28 04:29 1.5M
20260428T00Z_MSC_GDPS_WindU_IsbL-0900_LatLon0.15_PT123H.grib2 2026-04-28 04:29 1.5M
20260428T00Z_MSC_GDPS_WindU_IsbL-0925_LatLon0.15_PT123H.grib2 2026-04-28 04:29 1.5M
20260428T00Z_MSC_GDPS_WindU_IsbL-0950_LatLon0.15_PT123H.grib2 2026-04-28 04:29 1.4M
20260428T00Z_MSC_GDPS_WindU_IsbL-0970_LatLon0.15_PT123H.grib2 2026-04-28 04:29 1.4M
20260428T00Z_MSC_GDPS_WindU_IsbL-0985_LatLon0.15_PT123H.grib2 2026-04-28 04:29 1.4M
20260428T00Z_MSC_GDPS_WindU_IsbL-1000_LatLon0.15_PT123H.grib2 2026-04-28 04:29 1.4M
20260428T00Z_MSC_GDPS_WindU_IsbL-1015_LatLon0.15_PT123H.grib2 2026-04-28 04:29 1.3M
20260428T00Z_MSC_GDPS_WindV_AGL-10m_LatLon0.15_PT123H.grib2 2026-04-28 04:29 1.3M
20260428T00Z_MSC_GDPS_WindV_AGL-120m_LatLon0.15_PT123H.grib2 2026-04-28 04:29 970K
20260428T00Z_MSC_GDPS_WindV_AGL-40m_LatLon0.15_PT123H.grib2 2026-04-28 04:29 965K
20260428T00Z_MSC_GDPS_WindV_AGL-80m_LatLon0.15_PT123H.grib2 2026-04-28 04:29 971K
20260428T00Z_MSC_GDPS_WindV_IsbL-0001_LatLon0.15_PT123H.grib2 2026-04-28 04:29 773K
20260428T00Z_MSC_GDPS_WindV_IsbL-0005_LatLon0.15_PT123H.grib2 2026-04-28 04:29 849K
20260428T00Z_MSC_GDPS_WindV_IsbL-0010_LatLon0.15_PT123H.grib2 2026-04-28 04:29 879K
20260428T00Z_MSC_GDPS_WindV_IsbL-0020_LatLon0.15_PT123H.grib2 2026-04-28 04:29 929K
20260428T00Z_MSC_GDPS_WindV_IsbL-0030_LatLon0.15_PT123H.grib2 2026-04-28 04:29 847K
20260428T00Z_MSC_GDPS_WindV_IsbL-0050_LatLon0.15_PT123H.grib2 2026-04-28 04:29 1.0M
20260428T00Z_MSC_GDPS_WindV_IsbL-0100_LatLon0.15_PT123H.grib2 2026-04-28 04:29 1.1M
20260428T00Z_MSC_GDPS_WindV_IsbL-0150_LatLon0.15_PT123H.grib2 2026-04-28 04:29 1.0M
20260428T00Z_MSC_GDPS_WindV_IsbL-0175_LatLon0.15_PT123H.grib2 2026-04-28 04:29 1.0M
20260428T00Z_MSC_GDPS_WindV_IsbL-0200_LatLon0.15_PT123H.grib2 2026-04-28 04:29 836K
20260428T00Z_MSC_GDPS_WindV_IsbL-0225_LatLon0.15_PT123H.grib2 2026-04-28 04:29 843K
20260428T00Z_MSC_GDPS_WindV_IsbL-0250_LatLon0.15_PT123H.grib2 2026-04-28 04:29 843K
20260428T00Z_MSC_GDPS_WindV_IsbL-0275_LatLon0.15_PT123H.grib2 2026-04-28 04:29 869K
20260428T00Z_MSC_GDPS_WindV_IsbL-0300_LatLon0.15_PT123H.grib2 2026-04-28 04:29 916K
20260428T00Z_MSC_GDPS_WindV_IsbL-0350_LatLon0.15_PT123H.grib2 2026-04-28 04:29 871K
20260428T00Z_MSC_GDPS_WindV_IsbL-0400_LatLon0.15_PT123H.grib2 2026-04-28 04:29 874K
20260428T00Z_MSC_GDPS_WindV_IsbL-0450_LatLon0.15_PT123H.grib2 2026-04-28 04:29 1.1M
20260428T00Z_MSC_GDPS_WindV_IsbL-0500_LatLon0.15_PT123H.grib2 2026-04-28 04:29 1.1M
20260428T00Z_MSC_GDPS_WindV_IsbL-0550_LatLon0.15_PT123H.grib2 2026-04-28 04:29 1.1M
20260428T00Z_MSC_GDPS_WindV_IsbL-0600_LatLon0.15_PT123H.grib2 2026-04-28 04:29 1.1M
20260428T00Z_MSC_GDPS_WindV_IsbL-0650_LatLon0.15_PT123H.grib2 2026-04-28 04:29 1.2M
20260428T00Z_MSC_GDPS_WindV_IsbL-0700_LatLon0.15_PT123H.grib2 2026-04-28 04:29 1.2M
20260428T00Z_MSC_GDPS_WindV_IsbL-0750_LatLon0.15_PT123H.grib2 2026-04-28 04:29 1.3M
20260428T00Z_MSC_GDPS_WindV_IsbL-0800_LatLon0.15_PT123H.grib2 2026-04-28 04:29 1.3M
20260428T00Z_MSC_GDPS_WindV_IsbL-0850_LatLon0.15_PT123H.grib2 2026-04-28 04:29 1.4M
20260428T00Z_MSC_GDPS_WindV_IsbL-0875_LatLon0.15_PT123H.grib2 2026-04-28 04:29 1.4M
20260428T00Z_MSC_GDPS_WindV_IsbL-0900_LatLon0.15_PT123H.grib2 2026-04-28 04:29 1.5M
20260428T00Z_MSC_GDPS_WindV_IsbL-0925_LatLon0.15_PT123H.grib2 2026-04-28 04:29 1.4M
20260428T00Z_MSC_GDPS_WindV_IsbL-0950_LatLon0.15_PT123H.grib2 2026-04-28 04:29 1.4M
20260428T00Z_MSC_GDPS_WindV_IsbL-0970_LatLon0.15_PT123H.grib2 2026-04-28 04:29 1.4M
20260428T00Z_MSC_GDPS_WindV_IsbL-0985_LatLon0.15_PT123H.grib2 2026-04-28 04:29 1.4M
20260428T00Z_MSC_GDPS_WindV_IsbL-1000_LatLon0.15_PT123H.grib2 2026-04-28 04:29 1.4M
20260428T00Z_MSC_GDPS_WindV_IsbL-1015_LatLon0.15_PT123H.grib2 2026-04-28 04:29 1.3M